Notices

What's New in latest Release from April 7th, 2021:

- Updated Glossary, including Speed of Maximum Gust, and Total Hourly Precipitation

- Updated national and regional climate services offices contacts and prices information

- Addition of station inventory lists for 1981-2010, 1971-2000, and 1961-1990 Normals.

If you haven't already, please take our survey and provide feedback about our website: https://eccc.sondage-survey.ca/f/LanguageSelection.aspx?s=442ca660-fcf1-47c0-95a9-59707d6fd709

Hourly Data Report for September 26, 2020

OTTAWA INTL A
ONTARIO
Current Station Operator: NAVCAN

45°19'00.000" N
75°40'00.000" W
114.90 m
6106001
71628
YOW

Download Data

Hourly Data (September 2020)
Hourly Data Report for September 26, 2020
TIME
LST
Temp Definition
°C
Dew Point Definition
°C
Rel Hum Definition
%
Precip. Amount Definition
mm

Wind Dir Definition
10's deg

Wind Spd Definition
km/h
Visibility Definition
km
Stn Press Definition
kPa
Hmdx Definition


Wind Chill Definition


Weather Definition


00:00 8.5 7.1 91   5 10 24.1 100.27     LegendNANA
01:00 8.2 7.0 92   4 14 24.1 100.28     Clear
02:00 8.0 6.6 91   5 14 24.1 100.28     LegendNANA
03:00 8.1 6.7 91   3 12 24.1 100.29     LegendNANA
04:00 8.2 6.4 89   7 12 24.1 100.28     Mainly Clear
05:00 8.0 6.3 89   8 9 24.1 100.26     LegendNANA
06:00 7.0 5.9 93   5 8 24.1 100.29     LegendNANA
07:00 8.9 7.4 90   8 7 24.1 100.22     Mostly Cloudy
08:00 11.6 9.8 89   14 6 24.1 100.19     LegendNANA
09:00 16.5 13.4 82   23 7 24.1 100.19     LegendNANA
10:00 20.9 15.2 70   19 17 24.1 100.14 25   Mainly Clear
11:00 22.2 16.1 68   21 11 24.1 100.07 27   LegendNANA
12:00 25.0 16.0 57   18 17 24.1 100.00 30   LegendNANA
13:00 25.0 15.6 55   20 18 24.1 99.94 29   Mostly Cloudy
14:00 25.6 14.4 49   19 22 24.1 99.88 29   LegendNANA
15:00 24.7 12.4 46   19 18 24.1 99.84 27   LegendNANA
16:00 23.7 11.1 44   20 19 24.1 99.81 26   Mostly Cloudy
17:00 22.5 11.8 50   19 14 24.1 99.81 25   LegendNANA
18:00 21.2 12.7 58   19 12 24.1 99.79     LegendNANA
19:00 19.8 13.2 65   18 8 24.1 99.78     Mostly Cloudy
20:00 18.8 13.5 71   20 10 24.1 99.81     LegendNANA
21:00 17.6 13.5 77   21 5 24.1 99.85     LegendNANA
22:00 17.2 13.6 79   16 11 24.1 99.83     Mostly Cloudy
23:00 17.6 14.0 79   17 11 24.1 99.82     LegendNANA

Notes on Data Quality.

Legend

  • E = Estimated
  • M = Missing
  • NA = Not Available*
  • [empty] = Indicates an unobserved value
Date modified: